Regional Weather Roundup
Issued by NWS Little Rock, AR

Home | Current Version | Previous Version | Text Only | Print | Product List | Glossary On
Versions: 1 2 3 4 5 6 7 8 9 10 11 12 13 14 15 16 17 18 19 20 21 22 23 24 25 26 27
000
ASUS44 KLZK 201105
RWRLZK

WEATHER ROUNDUP FOR ARKANSAS
NATIONAL WEATHER SERVICE LITTLE ROCK AR
600 AM CDT SUN APR 20 2014

NOTE: "FAIR" INDICATES FEW OR NO CLOUDS BELOW 12,000 FEET WITH NO
SIGNIFICANT WEATHER AND/OR OBSTRUCTIONS TO VISIBILITY.

ARZ001-003-010-029-201200-
NORTHWEST ARKANSAS

CITY           SKY/WX    TMP DP  RH WIND       PRES   REMARKS
FAYETTEVILLE   MOCLDY    48  48 100 CALM      30.17F
FORT SMITH     PTCLDY    56  52  86 NE5       30.15R
HARRISON       MOCLDY    56  48  74 CALM      30.18S
BENTONVILLE    CLOUDY    55  46  71 SE6       30.17S
ROGERS         CLOUDY    57  49  74 SE7       30.18S
SILOAM SPGS    MOCLDY    57  45  62 E7        30.17R
HIGHFILL       CLOUDY    53  48  83 CALM      30.16S
SPRINGDALE     PTCLDY    57  48  72 S5        30.19
$$

ARZ004-005-016-201200-
NORTH CENTRAL ARKANSAS

CITY           SKY/WX    TMP DP  RH WIND       PRES   REMARKS
BATESVILLE     PTCLDY    50  46  87 CALM      30.17S
FLIPPIN        CLEAR     52  39  62 CALM      30.19R
MTN HOME       CLEAR     52  43  71 CALM      30.18R
$$

ARZ040-041-201200-
WEST CENTRAL ARKANSAS

CITY           SKY/WX    TMP DP  RH WIND       PRES   REMARKS
MENA           PTCLDY    48 N/A N/A CALM      30.18R
MOUNT IDA      CLOUDY    53  51  93 CALM      30.14S
$$

ARZ009-017-025-026-028-201200-
NORTHEAST ARKANSAS

CITY           SKY/WX    TMP DP  RH WIND       PRES   REMARKS
CORNING        FAIR      50  46  87 NE6       30.19R
JONESBORO      PTCLDY    50  45  83 CALM      30.17S
NEWPORT        PTCLDY    53  48  83 CALM      30.19R
WALNUT RIDGE   PTCLDY    52  45  76 N5        30.18R
BLYTHEVILLE    CLEAR     53  45  74 E3        30.18R
$$

ARZ022-023-033-042-044-201200-
CENTRAL ARKANSAS

CITY           SKY/WX    TMP DP  RH WIND       PRES   REMARKS
LITTLE ROCK    PTCLDY    54  51  90 W3        30.17R
N LITTLE ROCK    N/A     58  50  72 CALM      30.17R
JACKSONVILLE   CLEAR     49  47  94 W1        30.17R
SEARCY         CLEAR     49  47  93 CALM      30.18S
HOT SPRINGS    MOCLDY    53  50  89 CALM      30.17S
RUSSELLVILLE   CLOUDY    54  52  93 CALM      30.16S
CLINTON        CLOUDY    48  48 100 CALM      30.20R FOG
$$

ARZ036-201200-
EAST ARKANSAS

CITY           SKY/WX    TMP DP  RH WIND       PRES   REMARKS
WEST MEMPHIS   CLEAR     50  49  96 CALM      30.17R
$$

ARZ050-053-066-070-073-201200-
SOUTHWEST ARKANSAS

CITY           SKY/WX    TMP DP  RH WIND       PRES   REMARKS
ARKADELPHIA    FAIR      54  53  96 CALM      30.17S
CAMDEN         PTCLDY    50  48  93 MISG      30.16S FOG
TEXARKANA      PTCLDY    54  50  86 CALM      30.15R
EL DORADO      CLEAR     50  49  96 CALM      30.16S
DE QUEEN       PTCLDY    49  48  97 E5        30.13S FOG
$$

ARZ056-057-069-201200-
SOUTHEAST ARKANSAS

CITY           SKY/WX    TMP DP  RH WIND       PRES   REMARKS
PINE BLUFF     CLEAR     52  50  93 CALM      30.17R
STUTTGART      CLEAR     55  52  88 NE5       30.17R
MONTICELLO     CLEAR     50  48  93 CALM      30.16S

$$





USA.gov is the U.S. government's official web portal to all federal, state and local government web resources and services.